{"data":{"norad_id":67332,"epoch":"2026-09-19T19:34:24.418560Z","epoch_age_seconds":134536,"freshness":"FRESH","line1":"1 67332U 26002AD  26262.81556040  .00010446  00000+0  38850-3 0  9999","line2":"2 67332  42.9990 309.3135 0001639 287.5492  72.5180 15.27586296 40925","mean_motion":15.27586296,"eccentricity":0.0001639,"inclination_deg":42.999,"raan_deg":309.3135,"arg_perigee_deg":287.5492,"mean_anomaly_deg":72.518,"bstar":0.0003885,"rev_number":4092,"period_min":94.266360189971,"perigee_km":481.9056983042,"apogee_km":484.15478892666,"semimajor_km":6861.1672436154,"source":"CELESTRAK","updated_at":"2026-09-20T09:00:43.509662Z"}}